WZZ991 LRSM-LRCL

Flight info

Callsign WZZ991
Flight time 0h 17m
Altitude 20000
Route JIBOU LARMU LARM1X
Aircraft A21N/M-SDE3GHIJ2J3J5M1RVWXYZ/S

Departure

Time 2026-05-04 18:10
Airport Satu Mare International Airport (LRSM)

Arrival

Time 2026-05-04 18:27
Airport Avram Iancu Cluj International Airport (LRCL)
Time Latitude Longitude Altitude Speed Heading
2026-05-04 17:56 47.70633 22.88344 411 ft 0 kts 287°
2026-05-04 18:04 47.70633 22.88345 418 ft 1 kts 287°
2026-05-04 18:04 47.70633 22.88360 407 ft 1 kts 229°
2026-05-04 18:05 47.70637 22.88366 407 ft 1 kts 206°
2026-05-04 18:05 47.70629 22.88368 407 ft 5 kts 171°
2026-05-04 18:05 47.70604 22.88411 414 ft 5 kts 108°
2026-05-04 18:05 47.70601 22.88428 417 ft 0 kts 105°
2026-05-04 18:06 47.70600 22.88431 416 ft 0 kts 105°
2026-05-04 18:06 47.70593 22.88471 413 ft 6 kts 105°
2026-05-04 18:07 47.70577 22.88559 418 ft 12 kts 103°
2026-05-04 18:07 47.70610 22.88655 421 ft 11 kts 25°
2026-05-04 18:07 47.70691 22.88692 412 ft 14 kts 14°
2026-05-04 18:07 47.70799 22.88728 410 ft 17 kts 12°
2026-05-04 18:08 47.70928 22.88769 416 ft 20 kts 12°
2026-05-04 18:08 47.71094 22.88827 415 ft 29 kts 13°
2026-05-04 18:08 47.71291 22.88893 417 ft 27 kts 17°
2026-05-04 18:08 47.71392 22.88954 416 ft 1 kts 323°
2026-05-04 18:09 47.71381 22.88928 414 ft 5 kts 217°
2026-05-04 18:09 47.71346 22.88910 410 ft 8 kts 192°
2026-05-04 18:10 47.71039 22.88804 414 ft 93 kts 193°
2026-05-04 18:10 47.70072 22.88458 448 ft 184 kts 195°
2026-05-04 18:10 47.68774 22.87957 1341 ft 187 kts 196°
2026-05-04 18:10 47.67512 22.87452 2495 ft 196 kts 198°
2026-05-04 18:11 47.66159 22.86863 3254 ft 209 kts 199°
2026-05-04 18:11 47.64704 22.86510 4103 ft 220 kts 176°
2026-05-04 18:11 47.63313 22.87377 5206 ft 227 kts 145°
2026-05-04 18:11 47.62015 22.88941 5926 ft 251 kts 138°
2026-05-04 18:12 47.60782 22.90868 6832 ft 264 kts 129°
2026-05-04 18:12 47.59698 22.93144 7746 ft 277 kts 123°
2026-05-04 18:12 47.58614 22.95612 8646 ft 293 kts 123°
2026-05-04 18:12 47.57295 22.98033 9458 ft 312 kts 134°
2026-05-04 18:13 47.55587 23.00149 10332 ft 326 kts 143°
2026-05-04 18:13 47.53659 23.01990 11348 ft 333 kts 148°
2026-05-04 18:13 47.49625 23.05404 13733 ft 333 kts 148°
2026-05-04 18:14 47.47620 23.07053 15006 ft 327 kts 152°
2026-05-04 18:14 47.45473 23.08145 16244 ft 326 kts 161°
2026-05-04 18:14 47.43373 23.09393 17289 ft 327 kts 150°
2026-05-04 18:15 47.39411 23.12735 18757 ft 334 kts 148°
2026-05-04 18:15 47.35205 23.16195 19015 ft 350 kts 148°
2026-05-04 18:15 47.33068 23.17940 19013 ft 351 kts 148°
2026-05-04 18:16 47.30922 23.19661 19009 ft 352 kts 150°
2026-05-04 18:16 47.28715 23.21241 18976 ft 352 kts 152°
2026-05-04 18:16 47.26500 23.22771 18414 ft 353 kts 152°
2026-05-04 18:17 47.21959 23.25900 16825 ft 366 kts 152°
2026-05-04 18:17 47.19633 23.27441 16433 ft 368 kts 158°
2026-05-04 18:17 47.14600 23.27485 16063 ft 371 kts 193°
2026-05-04 18:18 47.12088 23.26620 16017 ft 371 kts 187°
2026-05-04 18:18 47.09523 23.26386 16020 ft 369 kts 173°
2026-05-04 18:18 47.07064 23.27273 16019 ft 363 kts 152°
2026-05-04 18:18 47.04931 23.29196 15836 ft 358 kts 140°
2026-05-04 18:19 47.01008 23.33683 14542 ft 357 kts 138°
2026-05-04 18:19 46.99060 23.35959 13750 ft 358 kts 137°
2026-05-04 18:19 46.97141 23.38274 12884 ft 357 kts 137°
2026-05-04 18:20 46.95247 23.40616 12039 ft 355 kts 136°
2026-05-04 18:20 46.93389 23.42991 11218 ft 353 kts 136°
2026-05-04 18:20 46.91557 23.45373 10404 ft 350 kts 136°
2026-05-04 18:20 46.89888 23.47864 9567 ft 341 kts 129°
2026-05-04 18:21 46.88425 23.50448 8837 ft 318 kts 127°
2026-05-04 18:21 46.87240 23.53042 8142 ft 299 kts 111°
2026-05-04 18:21 46.86859 23.55926 7471 ft 287 kts 87°
2026-05-04 18:21 46.87162 23.58809 6824 ft 288 kts 78°
2026-05-04 18:22 46.87503 23.61694 6268 ft 286 kts 81°
2026-05-04 18:22 46.87779 23.64516 6019 ft 273 kts 82°
2026-05-04 18:22 46.87957 23.67176 6034 ft 252 kts 85°
2026-05-04 18:22 46.88024 23.69684 6049 ft 244 kts 86°
2026-05-04 18:23 46.88070 23.72148 5995 ft 240 kts 87°
2026-05-04 18:23 46.88114 23.74562 5789 ft 236 kts 87°
2026-05-04 18:23 46.88158 23.76983 5258 ft 242 kts 86°
2026-05-04 18:23 46.88089 23.79450 4651 ft 251 kts 95°
2026-05-04 18:24 46.87613 23.81930 4038 ft 260 kts 118°
2026-05-04 18:24 46.86374 23.83866 3436 ft 266 kts 148°
2026-05-04 18:24 46.84657 23.84684 3097 ft 254 kts 179°
2026-05-04 18:24 46.83032 23.84185 2989 ft 228 kts 212°
2026-05-04 18:25 46.81932 23.82743 2975 ft 201 kts 239°
2026-05-04 18:25 46.81397 23.80982 2819 ft 186 kts 258°
2026-05-04 18:25 46.81126 23.79129 2448 ft 187 kts 259°
2026-05-04 18:25 46.80745 23.77312 2114 ft 187 kts 253°
2026-05-04 18:26 46.80322 23.75527 1826 ft 184 kts 254°
2026-05-04 18:26 46.79957 23.73791 1672 ft 176 kts 253°
2026-05-04 18:26 46.79566 23.72105 1453 ft 176 kts 252°
2026-05-04 18:26 46.79306 23.71002 1288 ft 170 kts 252°
2026-05-04 18:27 46.78966 23.69421 1055 ft 158 kts 254°
2026-05-04 18:27 46.78601 23.67766 1040 ft 79 kts 252°
2026-05-04 18:27 46.78473 23.67204 1040 ft 16 kts 240°
2026-05-04 18:27 46.78418 23.67194 1039 ft 10 kts 156°
2026-05-04 18:28 46.78379 23.67230 1039 ft 10 kts 144°
2026-05-04 18:28 46.78349 23.67281 1039 ft 0 kts 113°
2026-05-04 18:30 46.78365 23.67469 1039 ft 16 kts 75°
2026-05-04 18:30 46.78398 23.67632 1039 ft 18 kts 72°
2026-05-04 18:30 46.78437 23.67810 1039 ft 19 kts 72°
2026-05-04 18:31 46.78481 23.68005 1039 ft 21 kts 72°
2026-05-04 18:31 46.78528 23.68215 1039 ft 23 kts 72°
2026-05-04 18:31 46.78578 23.68438 1039 ft 24 kts 71°
2026-05-04 18:31 46.78628 23.68680 1039 ft 26 kts 73°
2026-05-04 18:32 46.78686 23.68933 1039 ft 27 kts 70°
2026-05-04 18:32 46.78718 23.69150 1039 ft 16 kts 102°
2026-05-04 18:32 46.78642 23.69244 1039 ft 16 kts 162°
2026-05-04 18:32 46.78531 23.69293 1039 ft 17 kts 163°
2026-05-04 18:33 46.78479 23.69282 1039 ft 7 kts 232°
2026-05-04 18:33 46.78476 23.69268 1039 ft 0 kts 256°